EDT,Max TemperatureF,Mean TemperatureF,Min TemperatureF,Max Dew PointF,MeanDew PointF,Min DewpointF,Max Humidity, Mean Humidity, Min Humidity, Max Sea Level PressureIn, Mean Sea Level PressureIn, Min Sea Level PressureIn, Max VisibilityMiles, Mean VisibilityMiles, Min VisibilityMiles, Max Wind SpeedMPH, Mean Wind SpeedMPH, Max Gust SpeedMPH,PrecipitationIn, CloudCover, Events, WindDirDegrees
2013-6-1,89,79,69,72,70,68,100,74,49,30.15,30.09,30.02,10,10,10,14,7,18,0.00,0,,199
2013-6-2,89,79,69,70,67,64,94,68,43,30.06,29.99,29.91,10,10,10,18,10,25,0.00,0,,199
2013-6-3,78,74,71,75,72,68,100,91,74,29.95,29.90,29.85,10,10,4,15,8,22,0.44,3,Rain-Thunderstorm,195
2013-6-4,77,68,60,72,63,57,100,75,50,30.15,30.04,29.93,10,8,0,14,4,20,0.00,1,Fog,34
2013-6-5,78,66,53,63,55,48,100,70,38,30.18,30.13,30.09,10,9,1,13,3,,0.00,0,,91
2013-6-6,78,68,57,70,64,57,100,82,57,30.10,29.99,29.89,10,10,5,13,4,18,0.09,1,Rain,124
2013-6-7,84,76,69,77,73,70,100,93,74,29.89,29.69,29.47,10,8,3,18,7,34,1.74,6,Rain,172
2013-6-8,82,76,69,75,71,70,100,87,66,30.10,29.95,29.81,10,10,5,15,6,23,0.06,4,Rain,232
2013-6-9,84,75,66,75,72,66,100,86,66,30.18,30.13,30.10,10,9,2,10,2,,0.00,1,,122
2013-6-10,82,76,71,77,73,72,100,91,74,30.12,30.03,29.93,10,9,2,16,7,29,2.67,4,Rain-Thunderstorm,183
2013-6-11,84,78,71,72,70,66,100,79,55,29.95,29.89,29.85,10,10,10,16,11,24,0.00,2,Rain,235
2013-6-12,91,78,66,73,69,66,100,73,43,29.95,29.89,29.85,10,10,7,14,4,18,0.00,0,,239
2013-6-13,95,82,69,79,73,64,100,78,47,29.85,29.70,29.54,10,10,7,26,6,34,0.12,0,Rain-Thunderstorm,224
2013-6-14,75,68,60,68,60,54,94,73,47,30.00,29.83,29.66,10,10,10,15,7,22,0.00,2,,320
2013-6-15,84,72,59,66,60,57,94,69,42,30.11,30.05,30.00,10,10,10,12,4,,0.00,0,,261
2013-6-16,87,76,64,70,64,57,94,67,48,30.10,30.04,29.98,10,10,10,17,7,26,0.00,1,,216
2013-6-17,84,76,68,73,69,66,100,81,62,30.05,30.00,29.95,10,10,1,17,8,50,1.08,1,Rain-Thunderstorm,202
2013-6-18,84,78,71,75,72,70,100,89,70,29.97,29.87,29.77,10,10,7,10,6,9,0.36,2,Rain-Thunderstorm,213
2013-6-19,77,70,64,70,66,63,100,85,69,30.16,30.01,29.84,10,10,5,12,4,16,0.00,4,Rain,38
2013-6-20,78,69,60,64,58,48,100,72,34,30.28,30.23,30.16,10,10,3,14,4,22,0.00,0,,54
2013-6-21,80,70,59,72,66,59,100,91,70,30.28,30.26,30.24,10,10,3,13,4,18,0.00,4,Rain,42
2013-6-22,84,74,64,73,70,63,100,90,62,30.25,30.22,30.18,10,10,1,14,3,20,1.06,3,Rain-Thunderstorm,87
2013-6-23,86,78,71,75,73,72,100,87,66,30.22,30.18,30.13,10,10,7,15,6,21,0.00,2,Rain-Thunderstorm,187
2013-6-24,87,80,73,75,74,72,100,84,62,30.21,30.16,30.09,10,10,10,13,7,18,0.00,2,Thunderstorm,209
2013-6-25,91,82,73,75,73,70,94,78,59,30.12,30.05,29.96,10,10,10,14,8,20,0.00,0,,224
2013-6-26,91,81,71,75,73,68,100,78,55,30.00,29.94,29.87,10,10,1,24,9,36,0.19,1,Rain-Thunderstorm,221
2013-6-27,91,80,69,77,73,70,100,83,59,29.90,29.81,29.71,10,10,5,18,8,24,0.39,0,Rain-Thunderstorm,205
2013-6-28,91,82,73,75,73,70,100,80,55,29.73,29.65,29.57,10,10,7,14,8,22,0.00,1,Rain-Thunderstorm,215
2013-6-29,87,79,71,75,73,70,100,87,62,29.77,29.67,29.60,10,10,10,20,8,25,0.14,2,Rain-Thunderstorm,198
2013-6-30,82,78,75,75,74,73,100,88,74,29.91,29.83,29.77,10,10,7,15,8,20,0.00,2,Rain,183